星链-36136(STARLINK-36136)

导读

STARLINK-36136是美国于2025年12月8日发射的星链系列卫星,星链是SpaceX打造的低轨卫星互联网星座,旨在为全球提供高速宽带互联网服务。该卫星继承星链技术方案,运行在近地轨道,服务全球网络覆盖,尤其是偏远地区网络接入,进一步扩充星链星座的规模与服务能力。

Basic Information
目录编号:
66967
目录名称:
STARLINK-36136
国际标识:
2025-288J
轨道中心:
EARTH
卫星名称:
星链-36136
卫星全名:
星链-36136(STARLINK-36136)
卫星状态:
在轨 (已飞行271 天)
发射日期:
2025-12-08 UTC
国别 :
美国 (US)
星等 :
--
Orbit Information
数据来源 国际轨道数据
星历时间: 2026-09-05T14:37:07+0800
8小时前
查看轨道信息
半长轴: 6861.164km
偏心率: 0.000182
轨道倾角: 43.004°
近地点辐角 270.155°
升交点赤经 89.171°
平近点角 89.910°
近地点: 481.778km
远地点: 484.276km
周期: 94.266分钟
每日圈数: 15.275874
Detailed Information
固有亮度:
5
最大亮度:
2.5
卫星平台:
Starlink V1.0
覆盖范围:
全球
运营商:
太空探索技术公司
运营商所在国:
美国
制造商(研发单位):
太空探索技术公司
制造商所在国:
美国
使用方式:
暂无
Satellite Introduction
Starlink 计划是 SpaceX 推出的全球卫星互联网项目,通过发射低轨道卫星,为全球尤其是偏远地区提供高速、低延迟的互联网服务。自 2019 年起,Starlink 已部署数千颗卫星,旨在缩小全球数字鸿沟,推动互联网普及。该项目还为军事、航空等行业提供通信支持,带来广泛经济效益。
2D Orbit Map
3D Orbit Map
Orbit Altitude Analysis Chart
Orbit Inclination Analysis Chart
Orbit Comprehensive Analysis Chart
View Comprehensive Chart
Conjunction Data List
Event ID Objects TCA Miss Dist (km) Collision Risk Probability Collision Risk Index (CRI) Action
CDM_260906-174205-487106-696721
2026-09-06T
17:42:34+0000
0.399 km
远距离
2.332384E-4 高风险 0.82
CDM_260906-160805-487106-696721
2026-09-06T
16:08:25+0000
0.577 km
远距离
9.753928E-5 中风险 0.75
CDM_260907-175005-557406-696721
2026-09-07T
17:50:01+0000
0.405 km
远距离
9.11754E-5 中风险 0.74
CDM_260906-030706-696706-742621
2026-09-06T
03:07:12+0000
0.683 km
远距离
7.05586E-5 中风险 0.72
CDM_260906-191605-487106-696721
2026-09-06T
19:16:43+0000
0.790 km
远距离
3.836623E-5 中风险 0.67
CDM_260905-031505-487106-696721
2026-09-05T
03:15:48+0000
0.965 km
远距离
1.965619E-5 中风险 0.61
CDM_260907-201105-557406-696721
2026-09-07T
20:11:14+0000
0.774 km
远距离
1.327002E-5 中风险 0.57
CDM_260906-143405-487106-696721
2026-09-06T
14:34:16+0000
1.086 km
极远距离
1.308002E-5 中风险 0.57
CDM_260906-013306-696706-742621
2026-09-06T
01:33:03+0000
1.150 km
极远距离
1.260021E-5 中风险 0.57
CDM_260906-224406-696706-742621
2026-09-06T
22:44:06+0000
1.298 km
极远距离
8.279949E-6 低风险 0.53